{"data":{"norad_id":66740,"intl_designator":"2025-276CC","name":"NUSAT-51 (YVONNE BRILL)","alt_names":[],"object_type":"PAYLOAD","status":"ACTIVE","operator":null,"country":"ARGN","launch_date":"2025-11-28","launch_site_code":"AFWTR","launch_vehicle":null,"mission":null,"orbit_class":"UNKNOWN","rcs_meters":null,"size_class":null,"mass_kg":null,"dimensions":null,"purposes":[],"wikipedia_slug":null,"has_3d_model":false,"image_url":null,"decayed_at":null,"tle_current":{"epoch":"2026-05-24T22:07:37.469280Z","epoch_age_seconds":75620,"freshness":"FRESH","line1":"1 66740U 25276CC  26144.92196145  .00005312  00000+0  25011-3 0  9991","line2":"2 66740  97.4211 218.9629 0004746  84.8448 275.3329 15.19945807 26898","mean_motion":15.19945807,"eccentricity":0.0004746,"inclination_deg":97.4211,"raan_deg":218.9629,"arg_perigee_deg":84.8448,"mean_anomaly_deg":275.3329,"bstar":0.00025011,"rev_number":2689,"period_min":94.740219905748,"perigee_km":502.73702946746,"apogee_km":509.27145633522,"semimajor_km":6884.1412429013,"source":"CELESTRAK","updated_at":"2026-05-25T13:38:06.448820Z"}}}